Regional Weather Roundup
Issued by NWS

Home | Current Version | Previous Version | Graphics & Text | Print | Product List | Glossary On
Versions: 1 2 3 4 5 6 7 8 9 10 11 12 13 14 15 16 17 18 19 20 21 22 23 24 25 26 27 28 29 30 31 32 33 34 35 36 37 38 39 40 41 42 43 44 45 46 47 48 49 50
000
ASUS43 KIND 120759
RWRIN

WEATHER ROUNDUP FOR INDIANA
NATIONAL WEATHER SERVICE INDIANAPOLIS IN
300 AM EST TUE DEC 12 2017

NOTE: "FAIR" INDICATES FEW OR NO CLOUDS BELOW 12,000 FEET WITH NO
SIGNIFICANT WEATHER AND/OR OBSTRUCTIONS TO VISIBILITY.

* - STATION DOES NOT REPORT WEATHER SUCH AS PRECIPITATION OR FOG.

+ - STATION NOT QUALITY CONTROLLED BY THE NATIONAL WEATHER SERVICE.
    USE DATA WITH CAUTION...ESPECIALLY DEWPOINT AND RELATIVE
    HUMIDITY OBSERVATIONS.

INZ001>003-010>013-019-020-120900-
NORTHWEST INDIANA

CITY           SKY/WX    TMP DP  RH WIND       PRES   REMARKS
MONTICELLO +   CLOUDY    31  25  79 NW22G30   29.88R WCI  18

$$

LMZ046-743>745-120900-
SOUTHERN LAKE MICHIGAN

STATION/POSITION TIME  TEMP    WIND        PRES    WAVE
                       AIR SEA DIR/SP/G            HT
                 (UTC) (F)     (DEG/KT/KT) (MB)    (FT)
BURNS HARBOR     0730   32     330/ 26/ 36 1012.2R
MICHIGAN CITY    0730   31     320/ 33/ 38   N/A

$$

INZ004-005-014>016-021>024-120900-
NORTH CENTRAL INDIANA

CITY           SKY/WX    TMP DP  RH WIND       PRES   REMARKS
GOSHEN         LGT SNOW  31  25  78 NW22G32   29.80R WCI  18
PERU/GRISSOM   MIX PCPN  32  29  87 NW16G23   29.82R WCI  21
SOUTH BEND     LGT SNOW  27  25  92 NW29G41   29.85R VSB 3/4 WCI  11

$$

INZ006>009-017-018-025>027-120900-
NORTHEAST INDIANA

CITY           SKY/WX    TMP DP  RH WIND       PRES   REMARKS
FORT WAYNE     FLURRIES  33  30  88 NW16G26   29.76R WCI  23
KENDALLVILLE + MIX PCPN  31  28  89 NW13G18   29.75R WCI  21

$$

INZ028-029-035-036-043>045-051>053-120900-
WEST CENTRAL INDIANA

CITY           SKY/WX    TMP DP  RH WIND       PRES   REMARKS
LAFAYETTE      MIX PCPN  31  27  85 NW20G30   29.90R WCI  19
TERRE HAUTE    CLOUDY    34  27  75 NW13G24   29.94R WCI  25

$$

INZ030>032-037>040-046>048-054>057-064-065-120900-
CENTRAL INDIANA

CITY           SKY/WX    TMP DP  RH WIND       PRES   REMARKS
INDIANAPOLIS   CLOUDY    33  28  81 NW18      29.88R WCI  22
-EAGLE CREEK   CLOUDY    34  27  75 NW17G25   29.86R WCI  23
KOKOMO +       CLOUDY    32  27  81 NW20G28   29.83R WCI  20
MT COMFORT *+  CLOUDY    32  32 100 NW17G24   29.84R WCI  21
SHELBYVILLE    CLOUDY    35  28  75 NW15      29.84R WCI  25

$$

INZ033-034-041-042-049-050-058-059-120900-
EAST CENTRAL INDIANA

CITY           SKY/WX    TMP DP  RH WIND       PRES   REMARKS
MUNCIE         CLOUDY    35  30  82 NW17G26   29.79R WCI  25
RICHMOND +     CLOUDY    32  32 100 NW16G23   29.78R FOG     WCI  21

$$

INZ060-061-067>069-081>083-085>088-120900-
SOUTHWEST INDIANA

CITY           SKY/WX    TMP DP  RH WIND       PRES   REMARKS
EVANSVILLE     CLOUDY    39  34  82 NW13G24   29.97R WCI  31
HUNTINGBURG +  CLOUDY    39  33  79 NW16G25   29.93R WCI  30

$$

INZ062-063-066-070>080-084-089>092-120900-
SOUTH CENTRAL AND SOUTHEAST INDIANA

CITY           SKY/WX    TMP DP  RH WIND       PRES   REMARKS
BLOOMINGTON    CLOUDY    35  28  75 W13       29.89R WCI  26
SEYMOUR +      CLOUDY    39  30  70 NW9G20    29.87R WCI  33

$$





USA.gov is the U.S. government's official web portal to all federal, state and local government web resources and services.